Weather reports worldwide

Advertisment
Saarbrücken-Ensheim, Germany (10708): temperature & dewpoint: 06.11.2019 16:00:00 - 12.11.2019 16:00:00 (CET)Saarbrücken-Ensheim, Germany (10708): temperature 5cm & temperature -5cm: 06.11.2019 16:00:00 - 12.11.2019 16:00:00 (CET)Saarbrücken-Ensheim, Germany (10708): temperature -20cm & temperature -100cm: 06.11.2019 16:00:00 - 12.11.2019 16:00:00 (CET)Saarbrücken-Ensheim, Germany (10708): wind speed & gusts: 06.11.2019 16:00:00 - 12.11.2019 16:00:00 (CET)Saarbrücken-Ensheim, Germany (10708): wind direction: 06.11.2019 16:00:00 - 12.11.2019 16:00:00 (CET)Saarbrücken-Ensheim, Germany (10708): reduced air pressure: 06.11.2019 16:00:00 - 12.11.2019 16:00:00 (CET)Saarbrücken-Ensheim, Germany (10708): visibility: 06.11.2019 16:00:00 - 12.11.2019 16:00:00 (CET)Saarbrücken-Ensheim, Germany (10708): sunshine duration: 06.11.2019 16:00:00 - 12.11.2019 16:00:00 (CET)Saarbrücken-Ensheim, Germany (10708): precipitation: 06.11.2019 16:00:00 - 12.11.2019 16:00:00 (CET)
Date & Time tt [°C] td [°C] tt 5cm [°C] tt -5cm [°C] tt -20cm [°C] tt -100cm [°C] ff [km/h] ff [kn] fx [km/h] fx [kn] dd ppp [hPa] vv [km] sd [min] rr [mm]
12.11.2019 16:00:00 6,4 2,1 6,4 6,7 6,9 11,0 15 8 38 20 WSW 1004,5 10 11 0,0
12.11.2019 15:00:00 5,9 2,0 5,4 6,6 6,9 11,0 28 15 39 21 SW 1004,6 30 0 0,0
12.11.2019 14:00:00 5,8 1,9 5,2 7,2 6,8 11,1 26 14 47 25 SW 1004,8 30 0 0,0
12.11.2019 13:00:00 6,4 1,3 6,8 8,2 6,4 11,1 35 19 51 27 SW 1005,0 10 17 0,0
12.11.2019 12:00:00 6,6 2,0 7,8 8,4 6,0 11,1 31 17 50 27 SW 1005,5 10 38 0,0
12.11.2019 11:00:00 5,4 2,1 5,3 6,1 5,8 11,1 29 16 42 23 SW 1006,2 35 6 0,0
12.11.2019 10:00:00 4,1 2,4 3,9 4,8 5,7 11,1 22 12 37 20 SSW 1006,8 23 0 0,1
12.11.2019 09:00:00 3,4 2,1 3,0 4,1 5,7 11,1 21 11 35 19 SSW 1007,4 10 0 0,2
12.11.2019 08:00:00 3,1 1,7 2,8 3,9 5,7 11,1 22 12 34 18 S 1007,4 20 0 0,0
12.11.2019 07:00:00 3,3 1,9 3,1 4,1 5,8 11,1 21 11 41 22 SSW 1007,8 10 0 0,0
12.11.2019 06:00:00 3,4 1,7 2,5 4,2 5,8 11,1 19 10 35 19 SSW 1007,8 30 0 0,0
12.11.2019 05:00:00 3,7 2,1 3,2 4,3 5,8 11,2 22 12 40 22 SW 1008,3 30 0 0,0
12.11.2019 04:00:00 3,8 2,1 3,4 4,4 5,8 11,2 24 13 35 19 SW 1008,3 10 0 0,0
12.11.2019 03:00:00 4,1 2,8 3,7 4,4 5,8 11,2 26 14 40 22 WSW 1008,3 10 0 0,0
12.11.2019 02:00:00 4,2 3,2 3,7 4,2 5,9 11,2 19 11 28 15 SW 1008,2 30 0 0,0
12.11.2019 01:00:00 4,1 3,2 3,4 4,1 6,0 11,2 15 8 23 13 SW 1008,1 10 0 0,0
12.11.2019 00:00:00 3,7 2,7 2,6 4,2 6,1 11,2 12 7 27 15 WSW 1008,1 40 0 0,0
11.11.2019 23:00:00 4,4 3,4 3,7 4,7 6,1 11,2 17 9 27 15 WSW 1007,4 25 0 0,1
11.11.2019 22:00:00 4,4 3,4 4,0 4,8 6,1 11,3 17 9 27 15 WSW 1006,9 12 0 0,3
11.11.2019 21:00:00 4,2 3,2 3,9 4,7 6,2 11,3 18 10 34 18 SW 1006,7 12 0 0,5
11.11.2019 20:00:00 4,0 2,9 3,6 4,7 6,2 11,3 16 9 29 16 SSW 1006,6 8 0 1,1
11.11.2019 19:00:00 3,7 2,3 3,3 4,7 6,3 11,3 15 8 27 14 S 1006,9 9 0 0,9
11.11.2019 18:00:00 3,8 1,8 2,8 4,8 6,4 11,3 13 7 23 13 S 1006,2 10 0 0,0
11.11.2019 17:00:00 3,9 2,1 2,9 5,5 6,5 11,3 15 8 21 11 SSE 1006,5 20 0 0,0
11.11.2019 16:00:00 4,1 2,2 3,7 6,2 6,4 11,3 9 5 16 9 S 1007,0 10 0 0,0
11.11.2019 15:00:00 4,1 2,3 4,0 6,6 6,3 11,3 11 6 20 11 SSE 1007,5 10 0 0,0
11.11.2019 14:00:00 4,1 2,3 4,5 6,5 6,1 11,4 11 6 18 10 S 1008,7 10 1 0,0
11.11.2019 13:00:00 3,5 2,3 3,9 6,0 5,9 11,4 9 5 22 12 SE 1009,6 7 0 0,0
11.11.2019 12:00:00 3,1 2,1 4,0 6,1 5,7 11,4 16 8 22 12 SSE 1010,8 5 0 0,0
11.11.2019 11:00:00 3,0 2,0 4,0 5,7 5,4 11,4 13 7 17 9 SSE 1011,6 3,6 0 0,0
11.11.2019 10:00:00 2,4 1,9 3,1 4,4 5,3 11,4 9 5 16 9 SE 1012,4 1,6 0 0,0
11.11.2019 09:00:00 2,0 1,9 2,4 3,5 5,3 11,4 13 7 18 10 SE 1013,2 0,7 0 0,0
11.11.2019 08:00:00 1,5 1,5 1,6 3,2 5,3 11,4 5 3 16 9 E 1013,8 0,4 0 0,0
11.11.2019 07:00:00 1,2 1,0 1,3 3,2 5,3 11,5 13 7 18 10 ESE 1014,1 0,4 0 0,0
11.11.2019 06:00:00 0,7 0,6 0,9 3,3 5,4 11,5 5 3 13 7 SE 1015,4 0,4 0 0,0
11.11.2019 05:00:00 0,7 0,6 0,9 3,3 5,4 11,5 7 4 13 7 SSE 1015,6 0,3 0 0,0
11.11.2019 04:00:00 0,9 0,8 1,0 3,4 5,4 11,5 9 5 15 8 ESE 1015,7 0,3 0 0,0
11.11.2019 03:00:00 1,6 1,6 1,7 3,5 5,4 11,5 9 5 18 10 SE 1016,1 0,3 0 0,0
11.11.2019 02:00:00 1,6 1,6 1,7 3,5 5,5 11,5 10 5 15 8 ESE 1015,8 0,3 0 0,0
11.11.2019 01:00:00 1,4 1,2 1,6 3,4 5,5 11,6 8 4 16 9 ESE 1016,5 0,5 0 0,0
11.11.2019 00:00:00 1,3 1,1 1,4 3,3 5,6 11,6 11 6 16 9 E 1016,8 0,5 0 0,0
10.11.2019 23:00:00 0,8 0,6 1,0 3,4 5,7 11,6 8 4 13 7 E 1017,3 0,2 0 0,0
10.11.2019 22:00:00 0,6 0,4 0,9 3,6 5,8 11,6 9 5 16 9 ENE 1017,5 0,2 0 0,0
10.11.2019 21:00:00 0,9 0,6 1,1 3,8 5,9 11,6 11 6 15 8 ENE 1017,1 0,1 0 0,0
10.11.2019 20:00:00 1,2 1,0 1,3 4,0 5,9 11,6 11 6 16 9 NE 1017,3 0,1 0 0,0
10.11.2019 19:00:00 1,6 1,4 1,8 4,3 6,0 11,6 9 5 13 7 ENE 1017,1 0,1 0 0,0
10.11.2019 18:00:00 1,8 1,5 1,9 4,6 6,1 11,7 7 4 13 7 ENE 1016,5 0,2 0 0,0
10.11.2019 17:00:00 2,2 1,8 2,4 5,2 6,0 11,7 8 4 11 6 ENE 1015,7 0,2 0 0,0
10.11.2019 16:00:00 2,2 1,5 2,7 5,8 5,9 11,7 6 3 13 7 NE 1015,1 0,9 0 0,0
10.11.2019 15:00:00 2,7 1,9 3,4 6,2 5,5 11,7 9 5 13 7 NNE 1014,2 1,1 0 0,0
10.11.2019 14:00:00 2,9 1,9 3,8 6,1 5,1 11,7 6 3 9 5 NE 1013,8 1,3 0 0,0
10.11.2019 13:00:00 2,7 1,8 4,5 5,3 4,7 11,7 5 3 15 8 NNE 1013,6 1,1 3 0,0
10.11.2019 12:00:00 1,9 1,6 2,6 3,3 4,5 11,7 11 6 15 8 ENE 1013,6 0,8 0 0,0
10.11.2019 11:00:00 0,9 0,6 1,7 1,4 4,5 11,7 9 5 23 12 NE 1013,3 0,2 0 0,0
10.11.2019 10:00:00 0,1 0,0 -0,1 1,2 4,6 11,7 5 3 16 8 ENE 1012,8 0,2 0 0,0
10.11.2019 09:00:00 -0,2 -0,8 -0,8 1,1 4,6 11,8 9 5 18 10 ENE 1011,8 1,0 30 0,0
10.11.2019 08:00:00 -1,0 -1,7 -2,9 1,1 4,7 11,8 14 7 18 10 ENE 1011,2 3,0 0 0,0
10.11.2019 07:00:00 -0,5 -1,2 -1,9 1,2 4,8 11,8 11 6 22 12 E 1010,6 12 0 0,0
10.11.2019 06:00:00 -0,9 -1,7 -2,0 1,3 5,0 11,8 12 6 19 10 E 1010,1 12 0 0,0
10.11.2019 05:00:00 -0,9 -1,6 -1,8 1,3 5,1 11,8 13 7 18 10 E 1009,6 9 0 0,0
10.11.2019 04:00:00 -1,0 -1,6 -2,2 1,4 5,3 11,8 11 6 16 9 E 1009,5 8 0 0,0
10.11.2019 03:00:00 -0,7 -1,4 -2,0 1,5 5,4 11,8 11 6 16 9 E 1009,5 10 0 0,0
10.11.2019 02:00:00 -0,5 -1,1 -1,8 1,6 5,6 11,8 11 6 13 7 E 1009,6 10 0 0,0
10.11.2019 01:00:00 -0,3 -0,9 -2,0 1,7 5,9 11,8 5 3 9 5 ENE 1009,8 15 0 0,0
10.11.2019 00:00:00 0,4 -0,3 -1,7 1,9 6,2 11,9 8 4 15 8 ENE 1009,6 10 0 0,0
09.11.2019 23:00:00 -0,1 -0,6 -2,0 2,2 6,5 11,9 5 3 9 5 ENE 1009,7 10 0 0,0
09.11.2019 22:00:00 0,5 0,0 -1,3 2,8 6,8 11,9 8 4 8 4 E 1010,1 7 0 0,0
09.11.2019 21:00:00 1,3 0,8 -0,9 3,4 7,1 11,9 4 2 5 3 E 1010,3 10 0 0,0
09.11.2019 20:00:00 1,5 0,7 -1,1 4,3 7,4 11,9 2 1 5 3 SSW 1010,4 20 0 0,0
09.11.2019 19:00:00 3,4 2,4 1,2 5,4 7,6 11,9 8 4 11 6 - 1010,4 10 0 0,0
09.11.2019 18:00:00 3,9 2,2 3,0 6,0 7,7 11,9 9 5 18 10 WSW 1010,5 10 0 0,9
09.11.2019 17:00:00 4,3 2,6 4,0 7,1 7,8 11,9 15 8 21 11 W 1010,5 10 1 0,2
09.11.2019 16:00:00 6,2 2,7 5,5 7,8 7,7 12,0 9 5 18 10 WSW 1010,1 10 4 0,0
09.11.2019 15:00:00 5,9 2,0 6,2 8,1 7,4 12,0 16 9 28 15 WSW 1010,8 10 7 0,0
09.11.2019 14:00:00 6,1 2,5 6,3 8,2 7,1 12,0 21 11 26 14 W 1011,0 10 20 0,0
09.11.2019 13:00:00 5,2 4,0 5,0 6,9 6,9 12,0 4 2 13 7 - 1011,4 10 0 0,0
09.11.2019 12:00:00 4,4 3,7 5,0 6,4 6,7 12,0 8 4 18 10 - 1012,1 6 0 0,0
09.11.2019 11:00:00 3,7 3,2 4,5 5,9 6,6 12,0 11 6 16 9 SSW 1012,4 2,5 0 0,0
09.11.2019 10:00:00 3,1 2,7 3,7 5,0 6,5 12,0 8 4 15 8 W 1012,4 0,6 0 0,0
09.11.2019 09:00:00 2,4 2,2 2,8 4,3 6,5 12,0 13 7 18 10 W 1012,5 0,1 0 0,0
09.11.2019 08:00:00 1,9 1,4 2,0 3,8 6,7 12,0 5 3 9 5 W 1012,4 0,9 0 0,0
09.11.2019 07:00:00 2,1 1,7 0,9 4,0 6,8 12,0 3 2 9 5 S 1011,6 0,5 0 0,0
09.11.2019 06:00:00 2,3 1,9 0,2 4,2 6,9 12,1 5 3 9 5 SW 1011,5 0,5 0 0,0
09.11.2019 05:00:00 3,4 3,0 3,1 5,0 6,9 12,1 6 3 8 4 WSW 1011,1 0,9 0 0,0
09.11.2019 04:00:00 3,7 3,2 3,6 5,0 6,9 12,1 4 2 5 3 SSW 1010,7 1,2 0 0,0
09.11.2019 03:00:00 3,6 3,3 3,5 4,9 7,0 12,1 3 2 5 3 WSW 1010,3 0,1 0 0,0
09.11.2019 02:00:00 3,5 3,2 3,5 4,7 7,0 12,1 5 3 8 4 WSW 1010,2 0,1 0 0,0
09.11.2019 01:00:00 3,8 3,5 3,6 4,3 7,2 12,1 5 3 9 5 S 1010,1 0,1 0 0,0
09.11.2019 00:00:00 1,8 1,3 0,3 4,0 7,4 12,1 2 1 4 2 - 1010,3 0,1 0 0,0
08.11.2019 23:00:00 2,5 1,9 0,1 4,6 7,6 12,1 2 1 4 2 W 1009,6 0,6 0 0,0
08.11.2019 22:00:00 3,5 2,9 1,1 5,5 7,8 12,1 2 1 5 3 - 1009,2 10 0 0,0
08.11.2019 21:00:00 4,4 4,0 4,0 5,9 7,9 12,1 5 3 5 3 WNW 1008,9 9 0 0,0
08.11.2019 20:00:00 4,0 3,3 2,7 6,1 8,1 12,2 4 2 4 2 E 1008,5 15 0 0,0
08.11.2019 19:00:00 5,6 4,8 4,4 6,7 8,1 12,2 4 2 5 3 W 1008,0 18 0 0,0
08.11.2019 18:00:00 5,6 4,6 4,8 7,1 8,2 12,2 2 1 5 3 - 1007,5 10 0 0,0
08.11.2019 17:00:00 6,3 4,8 5,8 7,6 8,2 12,2 2 1 5 3 - 1006,9 10 0 0,0
08.11.2019 16:00:00 6,6 4,7 6,2 8,0 8,1 12,2 5 3 11 6 ENE 1006,3 10 0 0,0
08.11.2019 15:00:00 7,0 4,3 7,0 8,4 7,9 12,2 9 5 15 8 NE 1005,8 10 0 0,0
08.11.2019 14:00:00 6,9 4,3 7,3 8,5 7,7 12,2 8 4 13 7 NNE 1005,6 10 0 0,0
08.11.2019 13:00:00 6,8 4,1 6,8 8,4 7,3 12,2 9 5 13 7 NNE 1005,7 10 0 0,0
08.11.2019 12:00:00 6,6 3,6 6,6 7,8 6,9 12,2 6 4 11 6 NE 1005,7 30 10 0,0
08.11.2019 11:00:00 5,6 3,7 6,0 6,2 6,7 12,2 5 3 13 7 NE 1006,2 10 6 0,0
08.11.2019 10:00:00 4,3 2,9 4,6 4,8 6,6 12,2 5 3 9 5 NE 1006,2 25 5 0,0
08.11.2019 09:00:00 2,8 1,9 2,0 3,8 6,7 12,2 7 4 9 5 ENE 1006,2 25 0 0,0
08.11.2019 08:00:00 3,0 2,2 1,5 3,8 6,8 12,2 6 3 13 7 ENE 1005,9 20 0 0,0
08.11.2019 07:00:00 3,1 2,2 2,3 3,9 6,9 12,3 9 5 13 7 E 1005,5 10 0 0,0
08.11.2019 06:00:00 3,2 2,2 2,5 3,9 7,0 12,3 10 5 16 8 E 1005,5 30 0 0,0
08.11.2019 05:00:00 3,0 2,0 1,8 3,8 7,1 12,3 5 3 15 8 NE 1005,6 10 0 0,0
08.11.2019 04:00:00 2,4 1,4 1,6 3,8 7,3 12,3 9 5 13 7 ENE 1005,5 10 0 0,0
08.11.2019 03:00:00 2,5 1,6 1,2 3,8 7,5 12,3 8 4 11 6 ENE 1005,6 10 0 0,0
08.11.2019 02:00:00 3,1 1,6 0,8 4,1 7,6 12,3 4 2 11 6 E 1006,0 30 0 0,0
08.11.2019 01:00:00 4,9 2,7 2,3 4,5 7,8 12,3 9 5 16 9 SSE 1006,1 10 0 0,0
08.11.2019 00:00:00 5,0 3,4 3,3 4,8 8,0 12,3 11 6 22 12 SSE 1005,9 10 0 0,0
07.11.2019 23:00:00 4,8 3,5 3,6 5,1 8,2 12,3 13 7 21 11 S 1005,8 10 0 0,0
07.11.2019 22:00:00 4,9 3,7 3,2 5,2 8,5 12,3 9 5 16 9 S 1005,5 10 0 0,0
07.11.2019 21:00:00 5,5 3,9 3,9 5,6 8,7 12,3 13 7 21 11 SW 1005,0 10 0 0,0
07.11.2019 20:00:00 6,1 2,9 4,1 5,9 9,0 12,3 16 9 22 12 SW 1004,9 40 0 0,0
07.11.2019 19:00:00 5,5 3,4 2,4 6,6 9,3 12,3 8 4 24 13 SSW 1004,5 40 0 0,0
07.11.2019 18:00:00 7,0 3,3 4,5 7,7 9,5 12,3 16 8 33 18 SW 1003,9 40 0 0,0
07.11.2019 17:00:00 8,0 3,4 6,6 8,8 9,5 12,3 22 12 35 19 WSW 1002,8 10 3 0,0
07.11.2019 16:00:00 8,6 4,8 7,7 9,8 9,3 12,3 18 10 51 27 WSW 1001,9 40 21 0,0
07.11.2019 15:00:00 9,1 5,3 8,4 10,2 9,1 12,3 26 14 43 23 SW 1001,0 10 23 0,0
07.11.2019 14:00:00 8,9 7,2 8,9 8,9 8,9 12,3 21 11 45 24 SSW 1000,3 10 0 0,1
07.11.2019 13:00:00 7,3 6,4 7,2 8,0 8,9 12,4 21 11 34 18 SSW 1000,1 10 0 1,2
07.11.2019 12:00:00 6,7 5,5 6,4 7,9 8,9 12,4 18 10 35 19 SSE 999,7 7 0 1,8
07.11.2019 11:00:00 6,8 5,0 6,2 7,7 8,9 12,4 22 12 51 28 SSE 999,7 10 0 2,7
07.11.2019 10:00:00 8,0 4,3 7,5 7,8 8,9 12,4 13 7 28 15 S 999,7 10 0 0,0
07.11.2019 09:00:00 7,1 4,7 6,5 7,3 9,0 12,4 15 8 27 15 SE 1000,1 30 0 0,0
07.11.2019 08:00:00 7,0 4,5 6,3 7,1 9,1 12,4 14 7 22 12 SE 1000,2 45 0 0,0
07.11.2019 07:00:00 7,1 4,7 6,2 7,5 9,2 12,4 13 7 26 14 SSE 1000,7 10 0 0,0
07.11.2019 06:00:00 7,5 5,7 7,2 7,8 9,3 12,4 16 9 28 15 S 1001,4 30 0 0,0
07.11.2019 05:00:00 7,2 6,0 6,4 7,9 9,3 12,4 13 7 22 12 S 1002,1 30 0 0,0
07.11.2019 04:00:00 7,5 6,2 7,3 8,1 9,3 12,4 11 6 22 12 S 1002,4 10 0 0,0
07.11.2019 03:00:00 7,5 6,4 7,3 8,1 9,4 12,4 15 8 23 12 SSW 1003,1 10 0 0,0
07.11.2019 02:00:00 7,5 6,4 7,2 8,1 9,4 12,4 13 7 22 12 S 1003,4 10 0 0,0
07.11.2019 01:00:00 7,4 6,3 7,1 8,2 9,5 12,4 15 8 22 12 SSW 1004,3 10 0 0,0
07.11.2019 00:00:00 7,5 6,3 7,2 8,2 9,5 12,4 15 8 22 12 SSW 1004,8 10 0 0,0
06.11.2019 23:00:00 7,8 6,3 7,4 8,3 9,6 12,4 18 10 28 15 SW 1005,1 10 0 0,0
06.11.2019 22:00:00 7,9 6,5 7,5 8,4 9,7 12,4 18 10 28 15 SW 1005,2 10 0 0,0
06.11.2019 21:00:00 8,0 6,6 7,6 8,6 9,7 12,4 19 10 32 17 SW 1005,1 25 0 0,0
06.11.2019 20:00:00 8,2 7,1 7,8 8,7 9,8 12,4 21 11 29 16 SW 1004,9 10 0 0,0
06.11.2019 19:00:00 8,2 7,3 7,9 8,9 9,9 12,4 18 10 26 14 SW 1004,9 10 0 0,3
06.11.2019 18:00:00 8,2 7,2 7,9 9,0 9,9 12,4 15 8 23 13 SW 1004,8 9 0 0,2
06.11.2019 17:00:00 8,7 6,5 8,2 9,3 9,9 12,5 11 6 28 15 SW 1004,7 10 6 0,0
06.11.2019 16:00:00 9,6 6,3 9,5 9,8 9,9 12,5 18 10 27 15 SW 1004,4 10 4 0,0

tt = temperature
td = dewpoint
tt 5cm = temperature 5cm
tt -5cm = temperature -5cm
tt -20cm = temperature -20cm
tt -100cm = temperature -100cm
ff = wind speed
fx = gusts
dd = wind direction
ppp = reduced air pressure
vv = visibility
sd = sunshine duration
rr = precipitation

Next stations